Location: Sabalos
(43.2860°N, 0.1414°E)
Time: 21:05:43
(UTC+00:00)

GEOS 3 Rocket - Pass Details

Date: 05 July 2020
Orbit: 771 x 848 km, 115.0° (Epoch: 14 August)

Event Time Altitude Azimuth Distance (km) Brightness Sun altitude
Rises 20:57:37 0° 37° (NE) 3,412 7.0 -11.3°
Reaches altitude 10° 20:59:57 10° 39° (NE) 2,477 6.2 -11.6°
Maximum altitude 21:05:22 78° 126° (SE) 869 3.6 -12.3°
Drops below altitude 10° 21:10:45 10° 213° (SSW) 2,458 6.0 -12.9°
Sets 21:13:04 0° 215° (SW) 3,385 6.7 -13.2°
